DMSP 5D-2 F13 DEB, 40523

Orbit data source: Space-Track

DMSP 5D-2 F13 DEB, 40523 is space debris in SSO originally from a launch on Fri, 24 Mar 1995 UTC launched from the Air Force Western Test Range (AFWTR). Debris objects in space refer to the collection of defunct objects orbiting the Earth. Examples of debris include non-operational satellites, rocket bodies, and fragments generated from explosions, collisions, or faulty payload assembly.

Loading next visibility...
Identifier
40523, 1995-015DK
Orbit
SSO
Country
Flag of USUS
Related business
Manufacturer
Unknown
Mission
Spacecraft
Bus & Motor
Unknown
Mass
Unknown
Launch date (UTC)
1995-03-24 (31 years ago)
Launch vehicle
Unknown
Launch site
Air Force Western Test Range (AFWTR)
Object type
Payload
Rocket body
Debris
Shape & HBR
Unknown shape, 0.1 m
Radar Cross Section
Medium (>0.1 m² and <1 m²)

Expand to show TLE details & history
Last TLE update: 2 days ago

TLE from 2 days ago
0 DMSP 5D-2 F13 DEB
1 40523U 95015DK  26170.62581143  .00005270  00000-0  13290-2 0  9991
2 40523  98.6022 229.2533 0012900 189.4727 170.6226 14.51465660586156
Epoch: 2026-06-19T15:01Z
TLE epoch observation values (Epoch: 2026-06-19T15:01:10.107Z)
Latitude
-0.00001°
Longitude
96.10909°
Altitude
732.864 km
Speed
7.484 km/s
True Right ascension
15h 17m 00s
True Declination
0° 00' 00"
Sunlit
Object was in full shadow at epoch
Visualization orbit readout
Latitude
Unknown
Longitude
Unknown
Altitude
Unknown
Speed
Unknown
Apparent Right ascension
Unknown
Apparent Declination
Unknown
Sunlit
N/A
Visualization observer readout
Local Sidereal Time
08:20:02
Azimuth
Unknown
Elevation
Unknown
Doppler factor
Unknown
Orbital elements
Apogee altitude
727.131 km
Perigee altitude
708.823 km
Semi-major axis
7,096.114 km
Eccentricity
0.00129
Inclination
98.6022°
RAAN
229.2533°
Arg. of periapsis
189.4727°
True anomaly
170.64665°
Mean anomaly
170.6226°
Eccentric anomaly
170.63463°
Mean motion
3.63088 °/min
Orbital period
99.15 mins
BSTAR
0.001329
Loading maneuver chart data...
Computing Atmospheric mass density...

Documentation

Showing up to 5 results
|